Flag for Germany Weather past 2 weeks in Aalen, Baden-Württemberg, Germany

Now
52 °F

Overcast.


Feels Like: 50 °F
Forecast: 41 / 70 °F
Wind: 6 mph from Northwest

Location: Stoetten

Current Time: May 30, 2015 at 9:12:40 PM

Latest Report: May 30, 2015 at 8:00 PM


Visibility: 47 mi

Pressure: 30.05 "Hg

Humidity: 77%

Dew point: 45 °F

Location of AalenLocation

Historic Weather in Aalen — Graph

°F

Aalen temperature yesterday

Maximum temperature yesterday: 66 °F (at 6:00 PM)
Minimum temperature yesterday: 49 °F (at 6:00 AM)
Average temperature yesterday: 57 °F

Past Weeks' High & Low Weather Summary

 TemperatureHumidityPressure
High67 °F (May 18, 6:00 PM)100% (May 15, 9:00 PM)30.35 "Hg (May 15, 9:00 PM)
Low40 °F (May 20, 1:00 PM)38% (May 22, 5:00 PM)29.70 "Hg (May 18, 8:00 PM)
Average51 °F76%30.06 "Hg
* Reported May 15 8:00 PM — May 30 8:00 PM, Aalen, Weather by CustomWeather, © 2015

Note: Actual official high and low records may vary slightly from our data, if they occured in-between our weather recording intervals... More about our weather records

Advertising

Aalen weather history for previous 24 hours

 ConditionsComfort  
Time TempWeatherWind HumidityBarometerVisibility
8:00 PM
Sat, May 30
52 °FOvercast.6 mph77%30.05 "Hg47 mi
7:00 PM54 °FOvercast.8 mph70%30.02 "Hg47 mi
6:00 PM55 °FOvercast.8 mph73%30.01 "Hg47 mi
5:00 PM53 °FOvercast.6 mph79%30.03 "Hg47 mi
4:00 PM50 °FOvercast.5 mph88%30.04 "Hg47 mi
3:00 PM49 °FLow clouds.5 mph95%30.04 "Hg43 mi
2:00 PM49 °FLight rain. Low clouds.5 mph95%30.03 "Hg22 mi
1:00 PM50 °FFog.5 mph97%30.01 "Hg5 mi
12:00 PM48 °FFog.6 mph100%30.01 "Hg1 mi
11:00 AM50 °FLight rain. Overcast.8 mph95%29.99 "Hg2 mi
10:00 AM50 °FLight rain. Low clouds.7 mph96%29.98 "Hg5 mi
9:00 AM49 °FLow clouds.7 mph100%29.97 "Hg1 mi
8:00 AM50 °FLight rain. Overcast.7 mph93%29.95 "Hg3 mi
7:00 AM53 °FOvercast.7 mph79%29.91 "Hg31 mi
6:00 AM52 °FOvercast.7 mph82%29.91 "Hg34 mi
5:00 AM51 °FOvercast.7 mph88%29.91 "Hg14 mi
4:00 AM50 °FOvercast.6 mph94%29.93 "Hg7 mi
3:00 AM51 °FFog.5 mph99%29.92 "Hg2 mi
2:00 AM50 °FFog.3 mph99%29.92 "Hg3 mi
1:00 AM51 °FLow clouds.5 mph95%29.90 "Hg6 mi
12:00 AM53 °FLow clouds.7 mph94%29.89 "Hg7 mi
11:00 PM
Fri, May 29
53 °FOvercast.5 mph91%29.89 "Hg9 mi
10:00 PM54 °FOvercast.5 mph88%29.88 "Hg11 mi
9:00 PM54 °FScattered clouds.6 mph85%29.85 "Hg28 mi
Weather by CustomWeather, © 2015

See weather overviewHow to use our weather pages